• Processing (Info)

  • MPEC 2015-C89 : 2015 CX13

    The following Minor Planet Electronic Circular may be linked-to from your own Web pages, but must not otherwise be redistributed electronically.

    A form allowing access to any MPEC is at the bottom of this page.


    Read MPEC 2015-C88 Read MPEC 2015-D01


    M.P.E.C. 2015-C89                                Issued 2015 Feb. 15, 23:26 UT
    
         The Minor Planet Electronic Circulars contain information on unusual
             minor planets and routine data on comets.  They are published
       on behalf of Commission 20 of the International Astronomical Union by the
              Minor Planet Center, Smithsonian Astrophysical Observatory,
                              Cambridge, MA 02138, U.S.A.
    
                 Prepared using the Tamkin Foundation Computer Network
    
                                  MPC@CFA.HARVARD.EDU
                URL https://www.minorplanetcenter.net/    ISSN 1523-6714
    
                                       2015 CX13
    
    Observations:
         K15C13X* C2015 02 11.46698 12 13 37.44 -02 21 40.7          20.4 VqEC089G96
         K15C13X  C2015 02 11.47448 12 13 40.26 -02 20 55.1          19.9 VqEC089G96
         K15C13X  C2015 02 11.48200 12 13 43.03 -02 20 08.4          20.2 VqEC089G96
         K15C13X  C2015 02 11.49330 12 13 47.29 -02 18 59.0          19.9 VqEC089G96
         K15C13X  C2015 02 11.50474 12 13 51.57 -02 17 48.7          20.0 VqEC089G96
         K15C13X  C2015 02 11.50547 12 13 51.90 -02 17 44.1          19.8 VqEC089G96
         K15C13X  C2015 02 11.50620 12 13 52.13 -02 17 39.6          19.8 VqEC089G96
         K15C13X  C2015 02 11.50693 12 13 52.37 -02 17 35.3          19.8 VqEC089G96
         K15C13X  C2015 02 11.54602 12 14 07.09 -02 13 34.1          19.6 VqEC089G96
         K15C13X  C2015 02 11.54664 12 14 07.37 -02 13 30.4          19.8 VqEC089G96
         K15C13X  C2015 02 11.54725 12 14 07.58 -02 13 26.7          20.3 VqEC089G96
         K15C13X  C2015 02 11.54786 12 14 07.84 -02 13 21.8          19.8 VqEC089G96
         K15C13X KC2015 02 13.42274612 27 10.31 +01 17 02.6          20.1 VuEC089H21
         K15C13X KC2015 02 13.42808712 27 12.62 +01 17 41.5          20.0 VuEC089H21
         K15C13X KC2015 02 13.43338512 27 14.92 +01 18 20.3          20.0 VuEC089H21
         K15C13X  C2015 02 13.46570 12 27 29.75 +01 22 21.8          19.9 VqEC089G96
         K15C13X  C2015 02 13.46875 12 27 31.06 +01 22 43.6          20.0 VqEC089G96
         K15C13X  C2015 02 13.47181 12 27 32.45 +01 23 06.5          19.8 VqEC089G96
         K15C13X  C2015 02 13.47487 12 27 33.74 +01 23 28.9          19.9 VqEC089G96
         K15C13X  C2015 02 14.24099112 33 30.05 +03 00 21.4          19.8 RtEC089H01
         K15C13X  C2015 02 14.25109612 33 34.79 +03 01 40.8          19.7 RtEC089H01
         K15C13X |C2015 02 14.26007 12 33 37.90 +03 03 37.6          19.9 VuEC089807
         K15C13X  C2015 02 14.26091912 33 39.39 +03 02 58.2          19.8 RtEC089H01
         K15C13X |C2015 02 14.26480 12 33 40.09 +03 04 14.6          20.1 VuEC089807
         K15C13X  C2015 02 14.26506812 33 41.32 +03 03 30.6          19.6 RtEC089H01
         K15C13X |C2015 02 14.26968 12 33 42.35 +03 04 53.1          20.1 VuEC089807
         K15C13X KC2015 02 14.41731012 34 52.25 +03 23 36.3          20.0 RtEC089448
         K15C13X KC2015 02 14.44721412 35 06.22 +03 27 33.6          20.6 RtEC089448
         K15C13X KC2015 02 14.47662112 35 20.03 +03 31 28.8          19.8 RtEC089448
         K15C13X FC2015 02 15.95560 12 48 00.04 +07 00 24.0                qEC089246
         K15C13X FC2015 02 15.95694 12 48 00.71 +07 00 35.8                qEC089246
    
    Observer details:
    246 Klet Observatory-KLENOT.  Observers M. Tichy, J. Ticha, M. Kocer.
        Measurer M. Tichy.  1.06-m KLENOT Telescope + CCD.
    448 Desert Moon Observatory.  Observer B. L. Stevens.  0.3-m
        Schmidt-Cassegrain + CCD.
    807 Cerro Tololo.  Observers T. Linder, R. Holmes.  Measurers T. Linder,
        R. Holmes, M. Williams.  0.41-m f/11 Ritchey-Chretien + CCD.
    G96 Mt. Lemmon Survey.  Observers J. A. Johnson, R. G. Matheny, A. R. Gibbs.
        Measurers E. J. Christensen, D. C. Fuls, A. R. Gibbs, A. D. Grauer,
        R. E. Hill, J. A. Johnson, R. A. Kowalski, S. M. Larson, R. G. Matheny,
        F. C. Shelly.  1.5-m reflector + CCD.
    H01 Magdalena Ridge Observatory, Socorro.  Observer W. H. Ryan.  2.4-m f/8.9
        reflector + CCD.
    H21 Astronomical Research Observatory, Westfield.  Observer R. Holmes.
        Measurers T. Linder, L. Buzzi, S. Foglia, T. Vorobjov.  0.61-m f/4.5
        astrograph + CCD.
    
    Orbital elements:
    2015 CX13                                                Earth MOID = 0.1352 AU
    Epoch 2014 Dec. 9.0 TT = JDT 2457000.5                  MPC
    M 309.47039              (2000.0)            P               Q
    n   0.40030895     Peri.   73.70573     -0.65002829     +0.71242456
    a   1.8233604      Node   150.01861     -0.72064446     -0.68832226
    e   0.5172357      Incl.   31.94633     +0.24111156     -0.13661517
    P   2.46           H   21.6           G   0.15           U   8
    Residuals in seconds of arc
    150211 G96  0.5+  0.3+    150211 G96  0.1-  0.6+    150214 H01  0.1-  0.4+
    150211 G96  0.7+  0.2-    150213 H21  0.2-  0.4-    150214 807  0.1+  0.3+
    150211 G96  0.0   0.3+    150213 H21  0.3-  0.6-    150214 H01  0.3-  0.2+
    150211 G96  0.3+  0.2+    150213 H21  0.3-  0.5-    150214 807  0.2+  0.5+
    150211 G96  0.1+  0.0     150213 G96  0.0   0.0     150214 448  0.5-  0.8+
    150211 G96  0.9+  0.1+    150213 G96  0.2-  0.6-    150214 448  0.3-  0.0
    150211 G96  0.2+  0.1+    150213 G96  0.7+  0.1-    150214 448  0.3+  0.6+
    150211 G96  0.3-  0.1-    150213 G96  0.2+  0.2-    150215 246  0.8+  0.5-
    150211 G96  0.9-  0.4-    150214 H01  0.3-  0.1+    150215 246  0.1+  0.8-
    150211 G96  0.2-  0.5-    150214 H01  0.2-  0.2+
    150211 G96  0.5-  0.6-    150214 807  0.1-  0.5+
    
    Ephemeris:
    2015 CX13                a,e,i = 1.82, 0.52, 32                  q = 0.8803
    Date    TT    R. A. (2000) Decl.     Delta      r     Elong.  Phase     V
    2015 01 16    10 44 09.8 -18 43 47   0.5701  1.3707   121.5    37.7    22.6
    ...
    2015 01 31    11 21 15.2 -14 19 59   0.3640  1.2555   131.3    36.1    21.4
    ...
    2015 02 08    11 53 45.2 -07 24 42   0.2673  1.1948   136.6    34.5    20.6
    ...
    2015 02 14    12 31 34.1 +02 29 29   0.2074  1.1504   138.2    34.9    19.9
    2015 02 15    12 39 38.7 +04 42 56   0.1991  1.1431   137.9    35.4    19.8
    2015 02 16    12 48 22.2 +07 07 28   0.1914  1.1358   137.2    36.2    19.8
    ...
    2015 02 22    13 57 42.0 +24 51 15   0.1624  1.0932   126.3    46.8    19.6
    ...
    2015 03 02    16 17 46.7 +45 27 01   0.1788  1.0395   100.9    69.4    20.4
    ...
    2015 03 17    19 37 08.0 +49 16 15   0.3061  0.9538    73.4    88.7    22.0
    
    A. U. Tomatic                (C) Copyright 2015 MPC           M.P.E.C. 2015-C89
    

    Read MPEC 2015-C88 Read MPEC 2015-D01


    MPEC number:

    Enter an MPEC number in one of the following forms:

    • 1997-B01 (the full form)
    • J97B01 (the packed version of the full form)
    • B01 (the abbreviated form)